| time (UTC) | temp F | wind direction | speed MPH | gust MPH | rain 1hr in | rain 24hr in | rain mn in | humidity % | barometer mb |
| 20260508140530 | 50 | 315 | 0.0 | 7.0 | 0.00 | 0.06 | 0.03 | 88 | 1013.7 |
| 20260508135346 | 51 | 140 | 0.0 | 7.0 | 0.00 | 0.05 | 0.02 | 88 | 1013.7 |
| 20260508134132 | 51 | 0 | 0.0 | 1.0 | 0.00 | 0.05 | 0.02 | 88 | 1013.5 |
| 20260508132856 | 51 | 0 | 0.0 | 0.0 | 0.00 | 0.05 | 0.02 | 87 | 1013.3 |
| 20260508131632 | 51 | 268 | 0.0 | 6.0 | 0.00 | 0.04 | 0.01 | 86 | 1013.2 |
| 20260508130453 | 51 | 232 | 0.0 | 3.0 | 0.00 | 0.04 | 0.01 | 85 | 1013.1 |
| 20260508125310 | 51 | 84 | 0.0 | 1.0 | 0.00 | 0.04 | 0.01 | 85 | 1013.3 |
| 20260508124117 | 51 | 245 | 0.0 | 6.0 | 0.00 | 0.04 | 0.01 | 85 | 1013.3 |
| 20260508122900 | 51 | 70 | 0.0 | 3.0 | 0.00 | 0.04 | 0.01 | 87 | 1013.3 |
| 20260508121645 | 51 | 198 | 0.0 | 2.0 | 0.00 | 0.04 | 0.01 | 87 | 1013.2 |
| 20260508120455 | 50 | 219 | 0.0 | 3.0 | 0.00 | 0.04 | 0.01 | 87 | 1013.1 |
| 20260508115311 | 50 | 238 | 0.0 | 2.0 | 0.00 | 0.04 | 0.01 | 89 | 1013.2 |
| 20260508114106 | 49 | 120 | 0.0 | 2.0 | 0.00 | 0.04 | 0.01 | 89 | 1012.9 |
| 20260508112930 | 48 | 130 | 0.0 | 1.0 | 0.00 | 0.04 | 0.01 | 90 | 1012.9 |
| 20260508111703 | 48 | 227 | 0.0 | 3.0 | 0.00 | 0.04 | 0.01 | 90 | 1012.7 |
| 20260508110441 | 47 | 146 | 0.0 | 2.0 | 0.00 | 0.04 | 0.01 | 90 | 1012.7 |
| 20260508105309 | 47 | 143 | 0.0 | 7.0 | 0.00 | 0.04 | 0.01 | 91 | 1012.7 |
| 20260508104102 | 47 | 69 | 0.0 | 7.0 | 0.00 | 0.04 | 0.01 | 91 | 1012.7 |
| 20260508102905 | 46 | 100 | 0.0 | 1.0 | 0.00 | 0.04 | 0.01 | 91 | 1012.7 |
| 20260508101710 | 45 | 168 | 0.0 | 2.0 | 0.00 | 0.04 | 0.01 | 91 | 1012.6 |
| 20260508100430 | 45 | 168 | 0.0 | 2.0 | 0.00 | 0.03 | 0.00 | 91 | 1012.7 |
| 20260508095150 | 45 | 200 | 0.0 | 0.0 | 0.00 | 0.03 | 0.00 | 91 | 1012.6 |
| 20260508093918 | 44 | 200 | 0.0 | 0.0 | 0.00 | 0.03 | 0.00 | 90 | 1012.8 |
| 20260508092728 | 45 | 200 | 0.0 | 0.0 | 0.00 | 0.03 | 0.00 | 90 | 1013.0 |
| 20260508091530 | 45 | 200 | 0.0 | 0.0 | 0.00 | 0.03 | 0.00 | 91 | 1013.0 |
| 20260508090328 | 44 | 200 | 0.0 | 0.0 | 0.00 | 0.03 | 0.00 | 90 | 1012.9 |
| 20260508085135 | 44 | 200 | 0.0 | 0.0 | 0.00 | 0.03 | 0.00 | 90 | 1012.9 |
| 20260508083857 | 44 | 200 | 0.0 | 0.0 | 0.00 | 0.03 | 0.00 | 90 | 1012.8 |
| 20260508082644 | 44 | 200 | 0.0 | 1.0 | 0.00 | 0.03 | 0.00 | 91 | 1012.9 |
| 20260508081426 | 44 | 200 | 0.0 | 1.0 | 0.00 | 0.03 | 0.00 | 90 | 1012.8 |
| 20260508080214 | 44 | 200 | 0.0 | 0.0 | 0.00 | 0.03 | 0.00 | 90 | 1012.9 |
| 20260508074933 | 44 | 225 | 0.0 | 2.0 | 0.00 | 0.03 | 0.00 | 90 | 1012.8 |
| 20260508073747 | 44 | 241 | 0.0 | 0.0 | 0.00 | 0.03 | 0.00 | 90 | 1012.8 |
| 20260508072609 | 43 | 118 | 0.0 | 0.0 | 0.00 | 0.03 | 0.00 | 90 | 1012.7 |
| 20260508071403 | 43 | 131 | 0.0 | 1.0 | 0.00 | 0.03 | 0.00 | 90 | 1012.8 |
| 20260508070157 | 43 | 131 | 0.0 | 1.0 | 0.00 | 0.03 | 0.00 | 90 | 1012.9 |
| 20260508063748 | 43 | 131 | 0.0 | 2.0 | 0.00 | 0.03 | 0.00 | 90 | 1013.1 |
| 20260508062617 | 43 | 267 | 0.0 | 0.0 | 0.00 | 0.03 | 0.00 | 90 | 1013.2 |
| 20260508061424 | 43 | 267 | 0.0 | 0.0 | 0.00 | 0.03 | 0.00 | 89 | 1013.1 |
| 20260508060253 | 43 | 267 | 0.0 | 1.0 | 0.00 | 0.03 | 0.00 | 90 | 1013.2 |
| 20260508055039 | 44 | 267 | 0.0 | 0.0 | 0.00 | 0.03 | 0.00 | 90 | 1013.3 |
| 20260508053843 | 44 | 267 | 0.0 | 0.0 | 0.00 | 0.03 | 0.00 | 90 | 1013.5 |
| 20260508052708 | 44 | 267 | 0.0 | 0.0 | 0.00 | 0.03 | 0.00 | 90 | 1013.5 |
| 20260508051517 | 44 | 267 | 0.0 | 0.0 | 0.00 | 0.03 | 0.00 | 90 | 1013.5 |
| 20260508050314 | 44 | 267 | 0.0 | 0.0 | 0.00 | 0.03 | 0.00 | 89 | 1013.5 |
| 20260508045053 | 44 | 267 | 0.0 | 0.0 | 0.00 | 0.03 | 0.00 | 89 | 1013.5 |
| 20260508043829 | 45 | 267 | 0.0 | 0.0 | 0.00 | 0.03 | 0.00 | 89 | 1013.4 |
| 20260508042630 | 45 | 267 | 0.0 | 0.0 | 0.00 | 0.03 | 0.00 | 89 | 1013.5 |
| 20260508041437 | 45 | 267 | 0.0 | 0.0 | 0.00 | 0.03 | 0.00 | 89 | 1013.5 |
| 20260508040226 | 45 | 267 | 0.0 | 2.0 | 0.00 | 0.03 | 0.00 | 88 | 1013.5 |
| 20260508035025 | 46 | 267 | 0.0 | 0.0 | 0.00 | 0.03 | 0.03 | 88 | 1013.6 |
| 20260508033805 | 46 | 267 | 0.0 | 0.0 | 0.00 | 0.03 | 0.03 | 88 | 1013.5 |
| 20260508032632 | 46 | 267 | 0.0 | 0.0 | 0.00 | 0.03 | 0.03 | 88 | 1013.7 |
| 20260508031421 | 47 | 267 | 0.0 | 0.0 | 0.00 | 0.03 | 0.03 | 87 | 1013.8 |
| 20260508030150 | 47 | 267 | 0.0 | 2.0 | 0.00 | 0.03 | 0.03 | 86 | 1014.1 |
| 20260508025005 | 48 | 267 | 0.0 | 0.0 | 0.04 | 0.03 | 0.03 | 84 | 1014.1 |
| 20260508023757 | 49 | 258 | 1.0 | 0.0 | 0.04 | 0.02 | 0.02 | 82 | 1014.1 |
| 20260508022551 | 50 | 56 | 0.0 | 3.0 | 0.20 | 0.02 | 0.02 | 80 | 1014.0 |
| 20260508021330 | 52 | 348 | 1.0 | 7.0 | 0.00 | 0.00 | 0.00 | 74 | 1014.0 |
| 20260508020053 | 51 | 209 | 0.0 | 6.0 | 0.00 | 0.00 | 0.00 | 73 | 1012.9 |
| 20260508014822 | 51 | 121 | 0.0 | 7.0 | 0.00 | 0.00 | 0.00 | 74 | 1012.7 |
| 20260508013601 | 50 | 152 | 0.0 | 0.0 | 0.00 | 0.00 | 0.00 | 75 | 1012.5 |
| 20260508012406 | 50 | 58 | 0.0 | 2.0 | 0.00 | 0.00 | 0.00 | 74 | 1012.4 |
| 20260508011236 | 50 | 174 | 0.0 | 4.0 | 0.00 | 0.00 | 0.00 | 73 | 1012.5 |
| 20260508010036 | 50 | 149 | 0.0 | 4.0 | 0.00 | 0.00 | 0.00 | 72 | 1012.8 |
| 20260508004813 | 51 | 142 | 0.0 | 2.0 | 0.00 | 0.00 | 0.00 | 71 | 1013.0 |
| 20260508003618 | 52 | 165 | 0.0 | 8.0 | 0.00 | 0.00 | 0.00 | 67 | 1012.9 |
| 20260508002428 | 52 | 114 | 0.0 | 8.0 | 0.00 | 0.00 | 0.00 | 67 | 1012.9 |
| 20260508001237 | 53 | 127 | 0.0 | 4.0 | 0.00 | 0.00 | 0.00 | 64 | 1013.0 |
| 20260508000041 | 53 | 119 | 0.0 | 4.0 | 0.00 | 0.00 | 0.00 | 64 | 1013.2 |
| 20260507234858 | 54 | 65 | 1.0 | 9.0 | 0.00 | 0.00 | 0.00 | 65 | 1013.3 |
| 20260507233726 | 54 | 119 | 1.0 | 9.0 | 0.00 | 0.00 | 0.00 | 61 | 1013.4 |
| 20260507232452 | 54 | 127 | 1.0 | 8.0 | 0.00 | 0.00 | 0.00 | 59 | 1013.4 |
| 20260507231248 | 54 | 35 | 1.0 | 6.0 | 0.00 | 0.00 | 0.00 | 60 | 1013.3 |
| 20260507230010 | 55 | 250 | 0.0 | 3.0 | 0.00 | 0.00 | 0.00 | 58 | 1013.5 |
| 20260507224748 | 55 | 26 | 0.0 | 4.0 | 0.00 | 0.00 | 0.00 | 56 | 1013.6 |
| 20260507223523 | 55 | 267 | 1.0 | 9.0 | 0.00 | 0.00 | 0.00 | 56 | 1013.8 |
| 20260507222321 | 55 | 229 | 0.0 | 8.0 | 0.00 | 0.00 | 0.00 | 58 | 1014.1 |
| 20260507221105 | 55 | 13 | 1.0 | 14.0 | 0.00 | 0.00 | 0.00 | 57 | 1014.2 |
| 20260507215903 | 55 | 348 | 1.0 | 6.0 | 0.00 | 0.00 | 0.00 | 58 | 1014.3 |
| 20260507214732 | 55 | 351 | 0.0 | 3.0 | 0.00 | 0.00 | 0.00 | 59 | 1014.2 |
| 20260507213455 | 55 | 302 | 0.0 | 0.0 | 0.00 | 0.00 | 0.00 | 59 | 1014.2 |
| 20260507212219 | 55 | 309 | 0.0 | 6.0 | 0.00 | 0.00 | 0.00 | 57 | 1014.1 |
| 20260507210957 | 56 | 9 | 0.0 | 11.0 | 0.00 | 0.00 | 0.00 | 56 | 1014.2 |
| 20260507205748 | 57 | 342 | 0.0 | 9.0 | 0.00 | 0.00 | 0.00 | 50 | 1014.1 |
| 20260507204536 | 57 | 317 | 0.0 | 6.0 | 0.00 | 0.00 | 0.00 | 49 | 1013.8 |
| 20260507203407 | 58 | 245 | 1.0 | 9.0 | 0.00 | 0.00 | 0.00 | 43 | 1013.7 |
| 20260507202219 | 60 | 115 | 1.0 | 9.0 | 0.00 | 0.00 | 0.00 | 45 | 1013.5 |
| 20260507201039 | 60 | 305 | 1.0 | 9.0 | 0.00 | 0.00 | 0.00 | 44 | 1013.7 |
| 20260507195854 | 60 | 302 | 3.0 | 11.0 | 0.00 | 0.00 | 0.00 | 41 | 1013.6 |
| 20260507194710 | 59 | 351 | 1.0 | 11.0 | 0.00 | 0.00 | 0.00 | 40 | 1014.0 |
| 20260507193525 | 59 | 5 | 1.0 | 11.0 | 0.00 | 0.00 | 0.00 | 42 | 1014.1 |
| 20260507192305 | 60 | 329 | 1.0 | 7.0 | 0.00 | 0.00 | 0.00 | 42 | 1014.3 |
| 20260507191023 | 60 | 342 | 1.0 | 12.0 | 0.00 | 0.00 | 0.00 | 43 | 1014.3 |
| 20260507185800 | 60 | 313 | 3.0 | 11.0 | 0.00 | 0.00 | 0.00 | 42 | 1014.4 |
| 20260507184614 | 59 | 332 | 1.0 | 9.0 | 0.00 | 0.00 | 0.00 | 47 | 1014.4 |
| 20260507183441 | 59 | 307 | 3.0 | 8.0 | 0.00 | 0.00 | 0.00 | 46 | 1014.4 |
| 20260507182208 | 59 | 211 | 1.0 | 16.0 | 0.00 | 0.00 | 0.00 | 47 | 1014.7 |
| 20260507180943 | 60 | 327 | 3.0 | 16.0 | 0.00 | 0.00 | 0.00 | 41 | 1014.7 |
| 20260507175744 | 59 | 243 | 1.0 | 8.0 | 0.00 | 0.00 | 0.00 | 45 | 1014.9 |
| 20260507174548 | 57 | 333 | 3.0 | 11.0 | 0.00 | 0.00 | 0.00 | 44 | 1015.0 |
| 20260507173412 | 59 | 19 | 1.0 | 14.0 | 0.00 | 0.00 | 0.00 | 49 | 1015.1 |
| 20260507172154 | 58 | 335 | 3.0 | 14.0 | 0.00 | 0.00 | 0.00 | 45 | 1015.3 |
| 20260507170943 | 58 | 327 | 1.0 | 18.0 | 0.00 | 0.00 | 0.00 | 48 | 1015.4 |
| 20260507165741 | 58 | 51 | 3.0 | 18.0 | 0.00 | 0.00 | 0.00 | 51 | 1015.7 |
| 20260507164551 | 57 | 5 | 1.0 | 15.0 | 0.00 | 0.00 | 0.00 | 44 | 1016.0 |
| 20260507163316 | 58 | 21 | 1.0 | 12.0 | 0.00 | 0.00 | 0.00 | 50 | 1016.2 |
| 20260507162037 | 56 | 350 | 4.0 | 12.0 | 0.00 | 0.00 | 0.00 | 44 | 1016.4 |
| 20260507160804 | 56 | 296 | 4.0 | 15.0 | 0.00 | 0.00 | 0.00 | 50 | 1016.3 |
| 20260507155548 | 55 | 346 | 4.0 | 15.0 | 0.00 | 0.00 | 0.00 | 47 | 1016.4 |
| 20260507154347 | 55 | 331 | 1.0 | 15.0 | 0.00 | 0.00 | 0.00 | 51 | 1016.3 |
| 20260507153357 | 55 | 346 | 1.0 | 7.0 | 0.00 | 0.00 | 0.00 | 56 | 1016.4 |
| 20260507153108 | 55 | 346 | 1.0 | 7.0 | 0.00 | 0.00 | 0.00 | 56 | 1016.4 |
| 20260507152230 | 54 | 281 | 1.0 | 11.0 | 0.00 | 0.00 | 0.00 | 50 | 1016.2 |
| 20260507151830 | 54 | 281 | 1.0 | 11.0 | 0.00 | 0.00 | 0.00 | 50 | 1016.2 |
| 20260507150559 | 53 | 22 | 3.0 | 12.0 | 0.00 | 0.00 | 0.00 | 53 | 1016.1 |
| 20260507145430 | 53 | 5 | 1.0 | 14.0 | 0.00 | 0.00 | 0.00 | 55 | 1016.0 |
| 20260507144156 | 52 | 300 | 1.0 | 8.0 | 0.00 | 0.00 | 0.00 | 57 | 1016.2 |
| 20260507142948 | 52 | 5 | 1.0 | 6.0 | 0.00 | 0.00 | 0.00 | 58 | 1016.4 |
| 20260507141710 | 51 | 275 | 0.0 | 11.0 | 0.00 | 0.00 | 0.00 | 61 | 1016.4 |